Weather History for Horseshoe Bay, TX

Change the Weather History Date:

Friday, August 23, 2013

  Actual Average (KBMQ) Record (KBMQ)
Temperature  
Mean Temperature 84 °F -  
Max Temperature 97 °F 90 °F 102 °F (2010)
Min Temperature 72 °F 71 °F 71 °F (2008)
Cooling Degree Days 20    
Growing Degree Days 34 (Base 50)    
Moisture  
Dew Point 64 °F    
Average Humidity 54    
Maximum Humidity 99    
Minimum Humidity 27    
Precipitation  
Precipitation 0.00 in - - ()
Sea Level Pressure  
Sea Level Pressure 29.99 in    
Wind  
Wind Speed 3 mph (SE)    
Max Wind Speed 9 mph    
Max Gust Speed 16 mph    
Visibility 10 miles    
Events      
Averages and records for this station are not official NWS values.
T = Trace of Precipitation, MM = Missing Value Source: NWS Daily Summary

Daily Weather History Graph

Daily Weather History Graph

Search for Another Location

Airport:

Trip Planner

Search our weather history database for the weather conditions in past years. The results will help you decide how hot, cold, wet, or windy it might be!

Date:

Astronomy

Aug. 23, 2013 Rise Set
Actual Time 6:05 AM MDT 7:06 PM MDT
Civil Twilight 5:40 AM MDT 7:31 PM MDT
Nautical Twilight 5:10 AM MDT 8:00 PM MDT
Astronomical Twilight 4:40 AM MDT 8:30 PM MDT
Moon 8:44 PM MDT (8/23) 8:45 AM MDT (8/23)
Length of Visible Light 13h 51m
Length of Day
13h 01m
Waning Gibbous, 91% of the Moon is Illuminated
Aug 23
Waning Gibbous
Aug 28
Last Quarter
Sep 5
New
Sep 12
First Quarter
Sep 19
Full

Hourly Weather History & Observations

Time (MDT) Temp. Heat Index Dew Point Humidity Pressure Visibility Wind Dir Wind Speed Gust Speed Precip Events Conditions
12:15 AM 79.3 °F - 67.5 °F 67% 30.01 in 10.0 mi SSE 4.6 mph - N/A   Clear
12:35 AM 79.0 °F - 67.5 °F 68% 30.01 in 10.0 mi SSE 5.8 mph - N/A   Clear
12:55 AM 78.8 °F - 68.0 °F 69% 30.01 in 10.0 mi SE 5.8 mph - N/A   Clear
1:15 AM 78.1 °F - 68.0 °F 71% 30.01 in 10.0 mi SSE 4.6 mph - N/A   Clear
1:35 AM 77.9 °F - 68.0 °F 71% 30.01 in 10.0 mi Calm Calm - N/A   Clear
1:55 AM 77.0 °F - 68.2 °F 74% 30.00 in 10.0 mi Calm Calm - N/A   Clear
2:15 AM 76.6 °F - 68.0 °F 75% 30.00 in 10.0 mi Calm Calm - N/A   Clear
2:35 AM 75.2 °F - 68.4 °F 79% 30.00 in 10.0 mi Calm Calm - N/A   Clear
2:55 AM 74.7 °F - 68.5 °F 81% 30.00 in 10.0 mi Calm Calm - N/A   Clear
3:15 AM 74.3 °F - 68.9 °F 83% 30.00 in 10.0 mi Calm Calm - N/A   Clear
3:35 AM 73.6 °F - 68.9 °F 85% 30.00 in 10.0 mi Calm Calm - N/A   Clear
3:55 AM 73.6 °F - 69.4 °F 87% 30.00 in 10.0 mi Calm Calm - N/A   Clear
4:15 AM 73.6 °F - 69.4 °F 87% 30.00 in 10.0 mi Calm Calm - N/A   Clear
4:35 AM 73.4 °F - 69.4 °F 87% 30.00 in 10.0 mi Calm Calm - N/A   Clear
4:55 AM 73.4 °F - 69.6 °F 88% 30.00 in 10.0 mi Calm Calm - N/A   Clear
5:15 AM 72.7 °F - 69.6 °F 90% 30.01 in 10.0 mi Calm Calm - N/A   Clear
5:35 AM 72.9 °F - 70.0 °F 91% 30.01 in 10.0 mi Calm Calm - N/A   Clear
5:55 AM 72.5 °F - 71.8 °F 98% 30.02 in 10.0 mi Calm Calm - N/A   Clear
6:15 AM 72.3 °F - 72.0 °F 99% 30.03 in 10.0 mi Calm Calm - N/A   Clear
6:35 AM 72.9 °F - 72.7 °F 99% 30.03 in 10.0 mi Calm Calm - N/A   Clear
6:55 AM 74.1 °F - 70.5 °F 88% 30.04 in 10.0 mi Calm Calm - N/A   Clear
7:15 AM 76.3 °F - 70.2 °F 81% 30.04 in 10.0 mi South 3.5 mph - N/A   Clear
7:35 AM 78.4 °F - 70.2 °F 76% 30.05 in 10.0 mi Calm Calm - N/A   Clear
7:55 AM 80.4 °F 83.5 °F 69.6 °F 69% 30.06 in 10.0 mi Calm Calm - N/A   Clear
8:15 AM 81.7 °F 85.4 °F 70.2 °F 68% 30.05 in 10.0 mi Calm Calm - N/A   Clear
8:35 AM 83.1 °F 86.6 °F 68.9 °F 62% 30.05 in 10.0 mi Calm Calm - N/A   Clear
8:55 AM 84.2 °F 87.1 °F 67.5 °F 57% 30.04 in 10.0 mi South 3.5 mph - N/A   Clear
9:15 AM 85.8 °F 87.9 °F 65.8 °F 51% 30.04 in 10.0 mi Calm Calm - N/A   Clear
9:35 AM 86.5 °F 88.7 °F 65.7 °F 50% 30.05 in 10.0 mi Calm Calm - N/A   Clear
9:55 AM 87.6 °F 89.4 °F 64.9 °F 47% 30.05 in 10.0 mi Calm Calm - N/A   Clear
10:15 AM 88.2 °F 89.6 °F 64.2 °F 45% 30.05 in 10.0 mi ESE 3.5 mph - N/A   Clear
10:35 AM 89.6 °F 90.8 °F 63.9 °F 42% 30.04 in 10.0 mi Calm Calm - N/A   Clear
10:55 AM 90.9 °F 92.0 °F 63.7 °F 40% 30.04 in 10.0 mi SSE 3.5 mph - N/A   Scattered Clouds
11:55 AM 92.5 °F 92.6 °F 61.2 °F 35% 30.03 in 10.0 mi ENE 6.9 mph - N/A   Clear
12:15 PM 93.0 °F 93.0 °F 60.8 °F 34% 30.02 in 10.0 mi East 6.9 mph - N/A   Clear
12:35 PM 93.7 °F 94.1 °F 61.2 °F 34% 30.01 in 10.0 mi SE 3.5 mph - N/A   Clear
12:55 PM 94.6 °F 94.7 °F 60.3 °F 32% 30.00 in 10.0 mi SSE 4.6 mph - N/A   Clear
1:15 PM 94.1 °F 93.9 °F 59.7 °F 32% 29.99 in 10.0 mi Calm Calm - N/A   Scattered Clouds
1:35 PM 94.1 °F 93.9 °F 59.7 °F 32% 29.99 in 10.0 mi East 5.8 mph - N/A   Scattered Clouds
1:55 PM 95.5 °F 95.2 °F 59.9 °F 30% 29.98 in 10.0 mi SSE 8.1 mph - N/A   Scattered Clouds
2:15 PM 96.8 °F 97.1 °F 60.4 °F 30% 29.97 in 10.0 mi SE 6.9 mph - N/A   Scattered Clouds
2:35 PM 95.9 °F 95.3 °F 59.0 °F 29% 29.96 in 10.0 mi ESE 9.2 mph - N/A   Scattered Clouds
2:55 PM 96.6 °F 96.0 °F 58.1 °F 28% 29.95 in 10.0 mi ESE 5.8 mph - N/A   Scattered Clouds
3:15 PM 97.2 °F 96.4 °F 58.5 °F 27% 29.94 in 10.0 mi SSE 9.2 mph 16.1 mph N/A   Scattered Clouds
3:35 PM 96.1 °F 95.2 °F 58.5 °F 28% 29.93 in 10.0 mi ESE 5.8 mph 16.1 mph N/A   Scattered Clouds
3:55 PM 96.8 °F 96.2 °F 59.0 °F 28% 29.92 in 10.0 mi ESE 3.5 mph - N/A   Scattered Clouds
4:15 PM 97.3 °F 97.0 °F 59.4 °F 28% 29.92 in 10.0 mi SSE 5.8 mph - N/A   Scattered Clouds
4:35 PM 96.4 °F 95.7 °F 58.6 °F 28% 29.92 in 10.0 mi SSE 5.8 mph - N/A   Scattered Clouds
4:55 PM 96.8 °F 96.7 °F 59.2 °F 29% 29.92 in 10.0 mi ESE 8.1 mph - N/A   Scattered Clouds
5:15 PM 95.2 °F 94.7 °F 58.8 °F 30% 29.92 in 10.0 mi ESE 8.1 mph - N/A   Clear
5:35 PM 92.5 °F 91.6 °F 59.0 °F 32% 29.92 in 10.0 mi SSE 3.5 mph - N/A   Clear
5:55 PM 94.1 °F 93.5 °F 59.2 °F 31% 29.92 in 10.0 mi SSE 5.8 mph - N/A   Clear
6:15 PM 92.1 °F 91.1 °F 58.6 °F 32% 29.92 in 10.0 mi ESE 4.6 mph - N/A   Scattered Clouds
6:35 PM 91.4 °F 90.4 °F 58.8 °F 33% 29.93 in 10.0 mi ESE 3.5 mph - N/A   Clear
6:55 PM 89.8 °F 88.9 °F 58.5 °F 35% 29.93 in 10.0 mi Calm Calm - N/A   Clear
7:15 PM 87.8 °F 87.4 °F 59.9 °F 39% 29.94 in 10.0 mi Calm Calm - N/A   Clear
7:35 PM 85.3 °F 85.9 °F 62.4 °F 46% 29.94 in 10.0 mi Calm Calm - N/A   Clear
7:55 PM 84.2 °F 85.0 °F 62.6 °F 48% 29.95 in 10.0 mi Calm Calm - N/A   Clear
8:15 PM 83.3 °F 84.3 °F 62.8 °F 50% 29.95 in 10.0 mi SSE 3.5 mph - N/A   Clear
8:35 PM 83.3 °F 84.3 °F 62.6 °F 50% 29.96 in 10.0 mi Calm Calm - N/A   Clear
8:55 PM 82.9 °F 83.7 °F 62.1 °F 49% 29.97 in 10.0 mi South 3.5 mph - N/A   Clear
9:15 PM 83.3 °F 83.9 °F 61.7 °F 48% 29.97 in 10.0 mi South 4.6 mph - N/A   Clear
9:35 PM 84.4 °F 84.6 °F 61.0 °F 45% 29.97 in 10.0 mi South 3.5 mph - N/A   Clear
9:55 PM 83.8 °F 84.1 °F 61.0 °F 46% 29.97 in 10.0 mi South 3.5 mph - N/A   Clear
10:15 PM 82.9 °F 83.3 °F 61.0 °F 47% 29.97 in 10.0 mi South 4.6 mph - N/A   Clear
10:35 PM 84.0 °F 84.4 °F 61.0 °F 46% 29.97 in 10.0 mi South 6.9 mph - N/A   Clear
10:55 PM 83.7 °F 84.1 °F 61.7 °F 47% 29.97 in 10.0 mi South 6.9 mph - N/A   Clear
11:15 PM 83.3 °F 84.1 °F 62.1 °F 49% 29.98 in 10.0 mi South 5.8 mph - N/A   Clear
11:35 PM 82.9 °F 83.8 °F 62.8 °F 50% 29.98 in 10.0 mi South 5.8 mph - N/A   Clear
11:55 PM 82.2 °F 83.5 °F 63.3 °F 53% 29.98 in 10.0 mi South 5.8 mph - N/A   Clear